Time,TemperatureF,DewpointF,PressureIn,WindDirection,WindDirectionDegrees,WindSpeedMPH,WindSpeedGustMPH,Humidity,HourlyPrecipIn,Conditions,Clouds,dailyrainin,SoftwareType,DateUTC
2013-02-24 00:00:00,25.2,21.9,29.86,NNW,331,0.0,0.0,87,0.00,,,0.00,Wunderground v.1.15,2013-02-24 07:00:00,
2013-02-24 00:10:00,25.4,22.3,29.86,NNW,331,0.0,0.0,88,0.00,,,0.00,Wunderground v.1.15,2013-02-24 07:10:00,
2013-02-24 00:20:00,25.6,22.5,29.86,NNW,331,0.0,0.0,88,0.00,,,0.00,Wunderground v.1.15,2013-02-24 07:20:00,
2013-02-24 00:30:00,25.8,22.5,29.88,NNW,331,0.0,1.0,87,0.00,,,0.00,Wunderground v.1.15,2013-02-24 07:30:00,
2013-02-24 00:35:00,25.7,22.4,29.87,NNW,331,0.0,2.0,87,0.00,,,0.00,Wunderground v.1.15,2013-02-24 07:35:00,
2013-02-24 00:40:00,25.4,21.8,29.87,NNW,332,1.0,3.0,86,0.00,,,0.00,Wunderground v.1.15,2013-02-24 07:40:00,
2013-02-24 00:44:00,24.6,20.5,29.87,North,351,3.0,8.0,84,0.00,,,0.00,Wunderground v.1.15,2013-02-24 07:44:00,
2013-02-24 00:50:00,23.7,19.9,29.88,NW,321,5.0,13.0,85,0.00,,,0.00,Wunderground v.1.15,2013-02-24 07:50:00,
2013-02-24 00:55:00,23.1,19.3,29.89,NNW,333,4.0,13.0,85,0.00,,,0.00,Wunderground v.1.15,2013-02-24 07:55:00,
2013-02-24 01:00:00,22.2,18.4,29.89,NNW,337,5.0,5.0,85,0.00,,,0.00,Wunderground v.1.15,2013-02-24 08:00:00,
2013-02-24 01:05:00,21.7,18.2,29.89,NW,322,6.0,6.0,86,0.00,,,0.00,Wunderground v.1.15,2013-02-24 08:05:00,
2013-02-24 01:10:00,21.2,17.7,29.89,NNW,333,6.0,6.0,86,0.00,,,0.00,Wunderground v.1.15,2013-02-24 08:10:00,
2013-02-24 01:15:00,20.8,17.5,29.89,North,355,7.0,7.0,87,0.00,,,0.00,Wunderground v.1.15,2013-02-24 08:15:00,
2013-02-24 01:20:00,20.5,17.2,29.89,North,11,7.0,10.0,87,0.00,,,0.00,Wunderground v.1.15,2013-02-24 08:20:00,
2013-02-24 01:25:00,20.3,17.0,29.90,North,355,7.0,10.0,87,0.00,,,0.00,Wunderground v.1.15,2013-02-24 08:25:00,
2013-02-24 01:30:00,20.1,16.9,29.90,NNW,348,8.0,8.0,87,0.00,,,0.00,Wunderground v.1.15,2013-02-24 08:30:00,
2013-02-24 01:40:00,19.7,16.5,29.90,NNW,344,8.0,8.0,87,0.00,,,0.00,Wunderground v.1.15,2013-02-24 08:40:00,
2013-02-24 01:45:00,19.7,16.5,29.90,NNW,341,9.0,9.0,87,0.00,,,0.00,Wunderground v.1.15,2013-02-24 08:45:00,
2013-02-24 01:50:00,19.7,16.5,29.90,North,355,9.0,14.0,87,0.00,,,0.00,Wunderground v.1.15,2013-02-24 08:50:00,
2013-02-24 01:55:00,19.6,16.1,29.90,NNW,329,9.0,14.0,86,0.00,,,0.00,Wunderground v.1.15,2013-02-24 08:55:00,
2013-02-24 02:05:00,19.5,16.0,29.90,NW,322,10.0,10.0,86,0.00,,,0.00,Wunderground v.1.15,2013-02-24 09:05:00,
2013-02-24 02:10:00,19.4,15.9,29.90,NNW,343,9.0,10.0,86,0.00,,,0.00,Wunderground v.1.15,2013-02-24 09:10:00,
2013-02-24 02:15:00,19.4,15.6,29.90,NNW,335,8.0,8.0,85,0.00,,,0.00,Wunderground v.1.15,2013-02-24 09:15:00,
2013-02-24 02:20:00,19.5,15.7,29.90,NNW,343,8.0,8.0,85,0.00,,,0.00,Wunderground v.1.15,2013-02-24 09:20:00,
2013-02-24 02:25:00,19.5,15.7,29.90,NNW,342,7.0,7.0,85,0.00,,,0.00,Wunderground v.1.15,2013-02-24 09:25:00,
2013-02-24 02:30:00,19.5,15.7,29.90,North,360,6.0,7.0,85,0.00,,,0.00,Wunderground v.1.15,2013-02-24 09:30:00,
2013-02-24 02:35:00,19.7,15.6,29.90,NNW,330,5.0,5.0,84,0.00,,,0.00,Wunderground v.1.15,2013-02-24 09:35:00,
2013-02-24 02:40:00,19.7,15.4,29.90,NNW,329,3.0,9.0,83,0.00,,,0.00,Wunderground v.1.15,2013-02-24 09:40:00,
2013-02-24 02:45:00,19.7,15.1,29.90,NNW,346,4.0,7.0,82,0.00,,,0.00,Wunderground v.1.15,2013-02-24 09:45:00,
2013-02-24 02:50:00,19.7,14.8,29.89,North,355,7.0,7.0,81,0.00,,,0.00,Wunderground v.1.15,2013-02-24 09:50:00,
2013-02-24 02:55:00,19.7,14.8,29.89,NNW,336,7.0,7.0,81,0.00,,,0.00,Wunderground v.1.15,2013-02-24 09:55:00,
2013-02-24 03:00:00,19.7,14.8,29.89,NNW,340,6.0,6.0,81,0.00,,,0.00,Wunderground v.1.15,2013-02-24 10:00:00,
2013-02-24 03:05:00,19.7,14.8,29.89,NNW,327,5.0,19.0,81,0.00,,,0.00,Wunderground v.1.15,2013-02-24 10:05:00,
2013-02-24 03:10:00,19.7,14.8,29.90,NW,323,4.0,4.0,81,0.00,,,0.00,Wunderground v.1.15,2013-02-24 10:10:00,
2013-02-24 03:15:00,19.7,14.8,29.90,NNW,331,3.0,4.0,81,0.00,,,0.00,Wunderground v.1.15,2013-02-24 10:15:00,
2013-02-24 03:20:00,19.7,14.5,29.90,NNW,341,3.0,4.0,80,0.00,,,0.00,Wunderground v.1.15,2013-02-24 10:20:00,
2013-02-24 03:25:00,19.7,14.8,29.90,NW,325,4.0,4.0,81,0.00,,,0.00,Wunderground v.1.15,2013-02-24 10:25:00,
2013-02-24 03:30:00,19.7,14.8,29.90,NW,321,3.0,3.0,81,0.00,,,0.00,Wunderground v.1.15,2013-02-24 10:30:00,
2013-02-24 03:35:00,19.7,14.8,29.91,NW,320,2.0,3.0,81,0.00,,,0.00,Wunderground v.1.15,2013-02-24 10:35:00,
2013-02-24 03:40:00,19.7,14.8,29.91,NW,319,2.0,2.0,81,0.00,,,0.00,Wunderground v.1.15,2013-02-24 10:40:00,
2013-02-24 03:45:00,19.7,14.8,29.91,NW,319,2.0,2.0,81,0.00,,,0.00,Wunderground v.1.15,2013-02-24 10:45:00,
2013-02-24 03:50:00,19.7,15.1,29.92,NW,319,1.0,2.0,82,0.00,,,0.00,Wunderground v.1.15,2013-02-24 10:50:00,
2013-02-24 03:55:00,19.5,14.9,29.92,NW,319,1.0,5.0,82,0.00,,,0.00,Wunderground v.1.15,2013-02-24 10:55:00,
2013-02-24 04:01:00,19.4,14.8,29.92,NW,318,2.0,2.0,82,0.00,,,0.00,Wunderground v.1.15,2013-02-24 11:01:00,
2013-02-24 04:10:00,19.2,14.9,29.92,NW,319,2.0,3.0,83,0.00,,,0.00,Wunderground v.1.15,2013-02-24 11:10:00,
2013-02-24 04:15:00,19.2,14.6,29.92,NW,319,2.0,2.0,82,0.00,,,0.00,Wunderground v.1.15,2013-02-24 11:15:00,
2013-02-24 04:20:00,19.1,14.5,29.92,NW,318,2.0,2.0,82,0.00,,,0.00,Wunderground v.1.15,2013-02-24 11:20:00,
2013-02-24 04:30:00,18.8,14.2,29.92,NW,319,1.0,2.0,82,0.00,,,0.00,Wunderground v.1.15,2013-02-24 11:30:00,
2013-02-24 04:40:00,18.6,14.0,29.92,NW,319,0.0,1.0,82,0.00,,,0.00,Wunderground v.1.15,2013-02-24 11:40:00,
2013-02-24 04:45:00,18.5,13.9,29.92,NW,319,0.0,0.0,82,0.00,,,0.00,Wunderground v.1.15,2013-02-24 11:45:00,
2013-02-24 04:50:00,18.4,14.1,29.92,NW,319,0.0,0.0,83,0.00,,,0.00,Wunderground v.1.15,2013-02-24 11:50:00,
2013-02-24 04:55:00,18.4,13.8,29.92,NW,319,0.0,0.0,82,0.00,,,0.00,Wunderground v.1.15,2013-02-24 11:55:00,
2013-02-24 05:05:00,18.3,13.7,29.93,NW,319,0.0,13.0,82,0.00,,,0.00,Wunderground v.1.15,2013-02-24 12:05:00,
2013-02-24 05:10:00,18.3,14.0,29.93,NW,319,0.0,13.0,83,0.00,,,0.00,Wunderground v.1.15,2013-02-24 12:10:00,
2013-02-24 05:20:00,18.2,13.6,29.93,NW,319,0.0,0.0,82,0.00,,,0.00,Wunderground v.1.15,2013-02-24 12:20:00,
2013-02-24 05:25:00,18.1,13.5,29.93,NW,319,0.0,0.0,82,0.00,,,0.00,Wunderground v.1.15,2013-02-24 12:25:00,
2013-02-24 05:30:00,18.0,13.7,29.94,NW,319,0.0,0.0,83,0.00,,,0.00,Wunderground v.1.15,2013-02-24 12:30:00,
2013-02-24 05:35:00,18.0,13.4,29.94,NW,319,0.0,0.0,82,0.00,,,0.00,Wunderground v.1.15,2013-02-24 12:35:00,
2013-02-24 05:40:00,17.9,13.6,29.94,NW,319,0.0,0.0,83,0.00,,,0.00,Wunderground v.1.15,2013-02-24 12:40:00,
2013-02-24 05:45:00,17.7,13.1,29.94,NW,319,0.0,0.0,82,0.00,,,0.00,Wunderground v.1.15,2013-02-24 12:45:00,
2013-02-24 05:50:00,17.5,12.9,29.94,NW,319,0.0,1.0,82,0.00,,,0.00,Wunderground v.1.15,2013-02-24 12:50:00,
2013-02-24 06:00:00,17.2,12.9,29.94,NW,318,1.0,5.0,83,0.00,,,0.00,Wunderground v.1.15,2013-02-24 13:00:00,
2013-02-24 06:05:00,17.2,12.9,29.94,NW,319,1.0,5.0,83,0.00,,,0.00,Wunderground v.1.15,2013-02-24 13:05:00,
2013-02-24 06:10:00,17.1,12.6,29.94,NW,319,1.0,5.0,82,0.00,,,0.00,Wunderground v.1.15,2013-02-24 13:10:00,
2013-02-24 06:15:00,17.1,12.8,29.95,NW,319,1.0,1.0,83,0.00,,,0.00,Wunderground v.1.15,2013-02-24 13:15:00,
2013-02-24 06:20:00,17.1,12.8,29.95,NW,319,0.0,1.0,83,0.00,,,0.00,Wunderground v.1.15,2013-02-24 13:20:00,
2013-02-24 06:25:00,17.1,12.8,29.95,NW,319,0.0,0.0,83,0.00,,,0.00,Wunderground v.1.15,2013-02-24 13:25:00,
2013-02-24 06:30:00,17.2,13.2,29.96,NW,319,0.0,0.0,84,0.00,,,0.00,Wunderground v.1.15,2013-02-24 13:30:00,
2013-02-24 06:35:00,17.3,13.3,29.95,NW,319,0.0,0.0,84,0.00,,,0.00,Wunderground v.1.15,2013-02-24 13:35:00,
2013-02-24 06:40:00,17.3,13.0,29.95,NW,319,0.0,0.0,83,0.00,,,0.00,Wunderground v.1.15,2013-02-24 13:40:00,
2013-02-24 06:45:00,17.1,12.8,29.95,NW,318,0.0,0.0,83,0.00,,,0.00,Wunderground v.1.15,2013-02-24 13:45:00,
2013-02-24 06:50:00,17.1,12.8,29.96,NW,319,0.0,0.0,83,0.00,,,0.00,Wunderground v.1.15,2013-02-24 13:50:00,
2013-02-24 06:55:00,17.0,12.7,29.95,NW,319,0.0,0.0,83,0.00,,,0.00,Wunderground v.1.15,2013-02-24 13:55:00,
2013-02-24 07:00:00,16.7,12.4,29.95,NW,319,0.0,0.0,83,0.00,,,0.00,Wunderground v.1.15,2013-02-24 14:00:00,
2013-02-24 07:05:00,16.6,12.1,29.96,NW,319,0.0,3.0,82,0.00,,,0.00,Wunderground v.1.15,2013-02-24 14:05:00,
2013-02-24 07:10:00,16.3,12.0,29.96,NW,319,0.0,0.0,83,0.00,,,0.00,Wunderground v.1.15,2013-02-24 14:10:00,
2013-02-24 07:15:00,16.1,11.8,29.96,NW,319,0.0,0.0,83,0.00,,,0.00,Wunderground v.1.15,2013-02-24 14:15:00,
2013-02-24 07:20:00,16.0,11.7,29.97,NW,319,0.0,0.0,83,0.00,,,0.00,Wunderground v.1.15,2013-02-24 14:20:00,
2013-02-24 07:25:00,15.9,11.9,29.97,NW,319,0.0,0.0,84,0.00,,,0.00,Wunderground v.1.15,2013-02-24 14:25:00,
2013-02-24 07:30:00,16.0,12.3,29.97,NW,319,0.0,0.0,85,0.00,,,0.00,Wunderground v.1.15,2013-02-24 14:30:00,
2013-02-24 07:35:00,16.1,12.4,29.98,NW,319,0.0,0.0,85,0.00,,,0.00,Wunderground v.1.15,2013-02-24 14:35:00,
2013-02-24 07:40:00,16.2,12.7,29.98,NW,319,0.0,0.0,86,0.00,,,0.00,Wunderground v.1.15,2013-02-24 14:40:00,
2013-02-24 07:50:00,16.7,13.2,29.98,NW,319,0.0,0.0,86,0.00,,,0.00,Wunderground v.1.15,2013-02-24 14:50:00,
2013-02-24 07:55:00,16.9,13.2,29.98,NW,319,0.0,0.0,85,0.00,,,0.00,Wunderground v.1.15,2013-02-24 14:55:00,
2013-02-24 08:00:00,17.1,13.1,29.98,NW,319,0.0,0.0,84,0.00,,,0.00,Wunderground v.1.15,2013-02-24 15:00:00,
2013-02-24 08:05:00,17.4,13.7,29.98,NW,319,0.0,2.0,85,0.00,,,0.00,Wunderground v.1.15,2013-02-24 15:05:00,
2013-02-24 08:10:00,17.9,14.4,29.98,NW,319,0.0,0.0,86,0.00,,,0.00,Wunderground v.1.15,2013-02-24 15:10:00,
2013-02-24 08:15:00,18.2,14.4,29.99,NW,319,0.0,0.0,85,0.00,,,0.00,Wunderground v.1.15,2013-02-24 15:15:00,
2013-02-24 08:20:00,18.6,14.3,29.99,NW,319,0.0,1.0,83,0.00,,,0.00,Wunderground v.1.15,2013-02-24 15:20:00,
2013-02-24 08:30:00,19.2,14.9,29.98,NW,319,0.0,0.0,83,0.00,,,0.00,Wunderground v.1.15,2013-02-24 15:30:00,
2013-02-24 08:35:00,19.5,14.9,29.98,NW,319,0.0,0.0,82,0.00,,,0.00,Wunderground v.1.15,2013-02-24 15:35:00,
2013-02-24 08:40:00,19.8,15.2,29.99,NW,319,0.0,0.0,82,0.00,,,0.00,Wunderground v.1.15,2013-02-24 15:40:00,
2013-02-24 08:45:00,20.1,15.5,29.99,NW,319,0.0,0.0,82,0.00,,,0.00,Wunderground v.1.15,2013-02-24 15:45:00,
2013-02-24 08:50:00,20.5,15.6,29.98,NW,319,0.0,0.0,81,0.00,,,0.00,Wunderground v.1.15,2013-02-24 15:50:00,
2013-02-24 09:00:00,20.9,16.0,29.98,NW,319,0.0,0.0,81,0.00,,,0.00,Wunderground v.1.15,2013-02-24 16:00:00,
2013-02-24 09:05:00,21.1,16.2,29.99,NW,319,0.0,1.0,81,0.00,,,0.00,Wunderground v.1.15,2013-02-24 16:05:00,
2013-02-24 09:10:00,21.5,16.9,29.98,NW,319,0.0,0.0,82,0.00,,,0.00,Wunderground v.1.15,2013-02-24 16:10:00,
2013-02-24 09:20:00,21.8,16.3,29.98,NW,319,0.0,1.0,79,0.00,,,0.00,Wunderground v.1.15,2013-02-24 16:20:00,
2013-02-24 09:25:00,22.0,16.8,29.98,NW,319,1.0,1.0,80,0.00,,,0.00,Wunderground v.1.15,2013-02-24 16:25:00,
2013-02-24 09:30:00,22.1,16.9,29.98,NW,319,1.0,1.0,80,0.00,,,0.00,Wunderground v.1.15,2013-02-24 16:30:00,
2013-02-24 09:35:00,22.0,16.8,29.98,NW,319,1.0,1.0,80,0.00,,,0.00,Wunderground v.1.15,2013-02-24 16:35:00,
2013-02-24 09:40:00,22.3,17.6,29.99,NW,318,0.0,2.0,82,0.00,,,0.00,Wunderground v.1.15,2013-02-24 16:40:00,
2013-02-24 09:45:00,22.4,17.2,29.99,NW,319,1.0,2.0,80,0.00,,,0.00,Wunderground v.1.15,2013-02-24 16:45:00,
2013-02-24 09:50:00,22.5,17.5,29.99,NW,319,1.0,1.0,81,0.00,,,0.00,Wunderground v.1.15,2013-02-24 16:50:00,
2013-02-24 09:55:00,22.7,17.7,29.99,NW,318,1.0,1.0,81,0.00,,,0.00,Wunderground v.1.15,2013-02-24 16:55:00,
2013-02-24 10:05:00,22.9,17.7,29.99,NW,318,0.0,2.0,80,0.00,,,0.00,Wunderground v.1.15,2013-02-24 17:05:00,
2013-02-24 10:10:00,23.5,18.2,29.99,NW,319,1.0,2.0,80,0.00,,,0.00,Wunderground v.1.15,2013-02-24 17:10:00,
2013-02-24 10:15:00,23.9,18.3,30.00,NW,318,1.0,1.0,79,0.00,,,0.00,Wunderground v.1.15,2013-02-24 17:15:00,
2013-02-24 10:20:00,24.4,17.6,30.00,NW,319,1.0,2.0,75,0.00,,,0.00,Wunderground v.1.15,2013-02-24 17:20:00,
2013-02-24 10:25:00,24.6,17.8,30.00,NW,319,1.0,1.0,75,0.00,,,0.00,Wunderground v.1.15,2013-02-24 17:25:00,
2013-02-24 10:30:00,24.7,17.6,30.00,NW,318,1.0,2.0,74,0.00,,,0.00,Wunderground v.1.15,2013-02-24 17:30:00,
2013-02-24 10:35:00,24.7,17.6,30.00,NW,319,1.0,1.0,74,0.00,,,0.01,Wunderground v.1.15,2013-02-24 17:35:00,
2013-02-24 10:40:00,24.7,17.3,30.00,NW,319,2.0,2.0,73,0.00,,,0.01,Wunderground v.1.15,2013-02-24 17:40:00,
2013-02-24 10:45:00,24.9,17.5,29.99,NW,317,2.0,3.0,73,0.00,,,0.01,Wunderground v.1.15,2013-02-24 17:45:00,
2013-02-24 10:50:00,24.9,17.1,29.99,NW,317,2.0,3.0,72,0.00,,,0.01,Wunderground v.1.15,2013-02-24 17:50:00,
2013-02-24 10:55:00,24.9,17.5,30.00,NW,315,2.0,2.0,73,0.00,,,0.01,Wunderground v.1.15,2013-02-24 17:55:00,
2013-02-24 11:01:00,25.2,17.1,29.99,NW,314,1.0,4.0,71,0.00,,,0.01,Wunderground v.1.15,2013-02-24 18:01:00,
2013-02-24 11:10:00,25.9,17.5,29.99,NW,314,1.0,4.0,70,0.00,,,0.01,Wunderground v.1.15,2013-02-24 18:10:00,
2013-02-24 11:15:00,26.0,17.2,29.99,NW,313,1.0,1.0,69,0.00,,,0.01,Wunderground v.1.15,2013-02-24 18:15:00,
2013-02-24 11:20:00,26.4,17.3,29.99,NW,312,1.0,1.0,68,0.00,,,0.01,Wunderground v.1.15,2013-02-24 18:20:00,
2013-02-24 11:25:00,26.5,16.3,30.00,NW,312,1.0,1.0,65,0.00,,,0.02,Wunderground v.1.15,2013-02-24 18:25:00,
2013-02-24 11:30:00,27.0,17.1,30.00,WNW,294,1.0,1.0,66,0.00,,,0.02,Wunderground v.1.15,2013-02-24 18:30:00,
2013-02-24 11:35:00,27.3,17.8,30.00,WNW,294,1.0,2.0,67,0.00,,,0.02,Wunderground v.1.15,2013-02-24 18:35:00,
2013-02-24 11:40:00,27.6,17.4,30.00,WNW,288,1.0,3.0,65,0.00,,,0.02,Wunderground v.1.15,2013-02-24 18:40:00,
2013-02-24 11:45:00,27.9,17.3,30.00,WNW,289,2.0,2.0,64,0.00,,,0.02,Wunderground v.1.15,2013-02-24 18:45:00,
2013-02-24 11:50:00,28.1,17.8,30.00,WNW,292,2.0,2.0,65,0.00,,,0.02,Wunderground v.1.15,2013-02-24 18:50:00,
2013-02-24 11:55:00,28.0,18.1,30.00,WNW,292,2.0,2.0,66,0.00,,,0.02,Wunderground v.1.15,2013-02-24 18:55:00,
2013-02-24 12:00:00,28.2,18.3,30.00,WNW,298,2.0,2.0,66,0.00,,,0.02,Wunderground v.1.15,2013-02-24 19:00:00,
2013-02-24 12:10:00,28.2,19.3,29.99,WNW,299,2.0,2.0,69,0.00,,,0.02,Wunderground v.1.15,2013-02-24 19:10:00,
2013-02-24 12:15:00,28.1,18.5,30.00,NNW,342,2.0,4.0,67,0.00,,,0.03,Wunderground v.1.15,2013-02-24 19:15:00,
2013-02-24 12:20:00,27.5,19.0,29.99,NNW,341,3.0,3.0,70,0.00,,,0.03,Wunderground v.1.15,2013-02-24 19:20:00,
2013-02-24 12:30:00,26.9,19.1,29.99,NNW,340,2.0,3.0,72,0.00,,,0.03,Wunderground v.1.15,2013-02-24 19:30:00,
2013-02-24 12:40:00,26.9,20.0,29.99,NNW,340,2.0,2.0,75,0.00,,,0.03,Wunderground v.1.15,2013-02-24 19:40:00,
2013-02-24 12:45:00,27.3,20.7,29.99,NNW,340,1.0,2.0,76,0.00,,,0.03,Wunderground v.1.15,2013-02-24 19:45:00,
2013-02-24 12:50:00,27.6,20.7,29.99,NNW,340,1.0,2.0,75,0.00,,,0.03,Wunderground v.1.15,2013-02-24 19:50:00,
2013-02-24 12:55:00,27.8,21.2,29.99,NNW,340,1.0,2.0,76,0.00,,,0.03,Wunderground v.1.15,2013-02-24 19:55:00,
2013-02-24 13:01:00,28.1,20.9,29.99,NNW,340,1.0,1.0,74,0.00,,,0.03,Wunderground v.1.15,2013-02-24 20:01:00,
2013-02-24 13:10:00,29.0,21.1,29.98,NNW,340,0.0,7.0,72,0.00,,,0.03,Wunderground v.1.15,2013-02-24 20:10:00,
2013-02-24 13:15:00,29.0,21.1,29.98,NNW,335,1.0,3.0,72,0.00,,,0.03,Wunderground v.1.15,2013-02-24 20:15:00,
2013-02-24 13:20:00,27.9,19.4,29.98,NNW,331,2.0,3.0,70,0.00,,,0.03,Wunderground v.1.15,2013-02-24 20:20:00,
2013-02-24 13:25:00,28.0,20.5,29.98,NNW,330,2.0,2.0,73,0.00,,,0.03,Wunderground v.1.15,2013-02-24 20:25:00,
2013-02-24 13:30:00,28.6,21.0,29.98,NW,323,1.0,5.0,73,0.00,,,0.03,Wunderground v.1.15,2013-02-24 20:30:00,
2013-02-24 13:35:00,28.3,19.1,29.98,South,173,2.0,2.0,68,0.00,,,0.03,Wunderground v.1.15,2013-02-24 20:35:00,
2013-02-24 13:40:00,28.4,19.5,29.98,South,175,2.0,2.0,69,0.00,,,0.03,Wunderground v.1.15,2013-02-24 20:40:00,
2013-02-24 13:45:00,29.1,20.9,29.98,SSW,200,1.0,1.0,71,0.00,,,0.03,Wunderground v.1.15,2013-02-24 20:45:00,
2013-02-24 13:50:00,29.9,21.0,29.98,NNW,331,2.0,2.0,69,0.00,,,0.03,Wunderground v.1.15,2013-02-24 20:50:00,
2013-02-24 14:01:00,30.5,19.8,29.97,NW,318,3.0,3.0,64,0.00,,,0.03,Wunderground v.1.15,2013-02-24 21:01:00,
2013-02-24 14:05:00,30.8,19.7,29.97,NW,315,3.0,6.0,63,0.00,,,0.03,Wunderground v.1.15,2013-02-24 21:05:00,
2013-02-24 14:10:00,31.0,19.5,29.97,North,349,4.0,6.0,62,0.00,,,0.03,Wunderground v.1.15,2013-02-24 21:10:00,
2013-02-24 14:15:00,31.1,19.6,29.97,NNW,345,5.0,6.0,62,0.00,,,0.03,Wunderground v.1.15,2013-02-24 21:15:00,
2013-02-24 14:20:00,30.9,19.4,29.98,NW,306,5.0,6.0,62,0.00,,,0.03,Wunderground v.1.15,2013-02-24 21:20:00,
2013-02-24 14:30:00,30.6,19.1,29.98,WNW,290,4.0,4.0,62,0.00,,,0.03,Wunderground v.1.15,2013-02-24 21:30:00,
2013-02-24 14:35:00,30.5,18.6,29.98,WNW,296,4.0,5.0,61,0.00,,,0.03,Wunderground v.1.15,2013-02-24 21:35:00,
2013-02-24 14:40:00,30.4,18.9,29.98,NW,309,5.0,5.0,62,0.00,,,0.03,Wunderground v.1.15,2013-02-24 21:40:00,
2013-02-24 14:45:00,30.6,18.7,29.98,NNW,327,5.0,5.0,61,0.00,,,0.03,Wunderground v.1.15,2013-02-24 21:45:00,
2013-02-24 14:50:00,30.7,18.1,29.98,NNW,340,5.0,5.0,59,0.00,,,0.03,Wunderground v.1.15,2013-02-24 21:50:00,
2013-02-24 14:55:00,30.7,18.4,29.98,NW,318,6.0,6.0,60,0.00,,,0.03,Wunderground v.1.15,2013-02-24 21:55:00,
2013-02-24 15:00:00,30.3,18.5,29.98,NW,317,6.0,6.0,61,0.00,,,0.03,Wunderground v.1.15,2013-02-24 22:00:00,
2013-02-24 15:05:00,30.1,18.6,29.99,NW,325,5.0,11.0,62,0.00,,,0.03,Wunderground v.1.15,2013-02-24 22:05:00,
2013-02-24 15:10:00,30.0,18.9,29.99,West,280,6.0,12.0,63,0.00,,,0.03,Wunderground v.1.15,2013-02-24 22:10:00,
2013-02-24 15:15:00,30.1,19.4,30.00,NW,309,7.0,14.0,64,0.00,,,0.03,Wunderground v.1.15,2013-02-24 22:15:00,
2013-02-24 15:20:00,30.1,19.0,30.00,NW,309,6.0,6.0,63,0.00,,,0.03,Wunderground v.1.15,2013-02-24 22:20:00,
2013-02-24 15:25:00,30.0,18.5,30.00,NNW,340,7.0,9.0,62,0.00,,,0.03,Wunderground v.1.15,2013-02-24 22:25:00,
2013-02-24 15:30:00,30.1,19.0,30.00,NW,326,7.0,7.0,63,0.00,,,0.03,Wunderground v.1.15,2013-02-24 22:30:00,
2013-02-24 15:40:00,30.1,17.9,30.01,WNW,299,6.0,8.0,60,0.00,,,0.03,Wunderground v.1.15,2013-02-24 22:40:00,
2013-02-24 15:45:00,30.1,17.5,30.01,NW,326,6.0,10.0,59,0.00,,,0.03,Wunderground v.1.15,2013-02-24 22:45:00,
2013-02-24 15:50:00,29.9,16.5,30.02,NW,321,7.0,7.0,57,0.00,,,0.03,Wunderground v.1.15,2013-02-24 22:50:00,
2013-02-24 15:55:00,29.7,16.7,30.02,NW,306,6.0,7.0,58,0.00,,,0.03,Wunderground v.1.15,2013-02-24 22:55:00,
2013-02-24 16:05:00,29.3,15.9,30.03,North,351,8.0,8.0,57,0.00,,,0.03,Wunderground v.1.15,2013-02-24 23:05:00,
2013-02-24 16:10:00,29.3,16.3,30.03,WNW,300,6.0,8.0,58,0.00,,,0.03,Wunderground v.1.15,2013-02-24 23:10:00,
2013-02-24 16:15:00,29.3,15.9,30.04,North,360,6.0,6.0,57,0.00,,,0.03,Wunderground v.1.15,2013-02-24 23:15:00,
2013-02-24 16:20:00,29.1,16.1,30.04,NNW,334,5.0,6.0,58,0.00,,,0.03,Wunderground v.1.15,2013-02-24 23:20:00,
2013-02-24 16:25:00,29.2,15.8,30.04,NNW,339,5.0,7.0,57,0.00,,,0.03,Wunderground v.1.15,2013-02-24 23:25:00,
2013-02-24 16:30:00,29.4,16.0,30.05,NNW,332,5.0,7.0,57,0.00,,,0.03,Wunderground v.1.15,2013-02-24 23:30:00,
2013-02-24 16:35:00,29.7,16.3,30.05,NNW,337,5.0,5.0,57,0.00,,,0.03,Wunderground v.1.15,2013-02-24 23:35:00,
2013-02-24 16:40:00,29.9,16.1,30.05,NNW,340,4.0,5.0,56,0.00,,,0.03,Wunderground v.1.15,2013-02-24 23:40:00,
2013-02-24 16:50:00,30.0,14.9,30.06,North,350,4.0,6.0,53,0.00,,,0.03,Wunderground v.1.15,2013-02-24 23:50:00,
2013-02-24 16:55:00,29.8,15.2,30.06,NNW,336,4.0,5.0,54,0.00,,,0.03,Wunderground v.1.15,2013-02-24 23:55:00,
2013-02-24 17:00:00,29.6,14.5,30.06,NNW,348,5.0,5.0,53,0.00,,,0.03,Wunderground v.1.15,2013-02-25 00:00:00,
2013-02-24 17:05:00,29.6,15.0,30.06,NW,323,4.0,17.0,54,0.00,,,0.03,Wunderground v.1.15,2013-02-25 00:05:00,
2013-02-24 17:10:00,29.6,15.8,30.07,NW,320,3.0,3.0,56,0.00,,,0.03,Wunderground v.1.15,2013-02-25 00:10:00,
2013-02-24 17:15:00,29.5,14.9,30.07,North,360,3.0,5.0,54,0.00,,,0.03,Wunderground v.1.15,2013-02-25 00:15:00,
2013-02-24 17:20:00,28.9,14.3,30.07,NNW,344,5.0,5.0,54,0.00,,,0.03,Wunderground v.1.15,2013-02-25 00:20:00,
2013-02-24 17:25:00,28.5,14.4,30.08,NNW,346,5.0,5.0,55,0.00,,,0.03,Wunderground v.1.15,2013-02-25 00:25:00,
2013-02-24 17:30:00,28.2,14.5,30.08,NNW,345,3.0,3.0,56,0.00,,,0.03,Wunderground v.1.15,2013-02-25 00:30:00,
2013-02-24 17:35:00,28.0,13.9,30.08,NNW,346,1.0,3.0,55,0.00,,,0.03,Wunderground v.1.15,2013-02-25 00:35:00,
2013-02-24 17:40:00,28.0,13.5,30.08,NNW,347,1.0,4.0,54,0.00,,,0.03,Wunderground v.1.15,2013-02-25 00:40:00,
2013-02-24 17:45:00,28.0,13.5,30.09,NNW,346,2.0,4.0,54,0.00,,,0.03,Wunderground v.1.15,2013-02-25 00:45:00,
2013-02-24 17:50:00,28.0,13.5,30.09,NNW,348,3.0,3.0,54,0.00,,,0.03,Wunderground v.1.15,2013-02-25 00:50:00,
2013-02-24 17:55:00,27.9,13.0,30.10,North,349,3.0,4.0,53,0.00,,,0.03,Wunderground v.1.15,2013-02-25 00:55:00,
2013-02-24 18:00:00,27.8,13.3,30.10,North,355,3.0,3.0,54,0.00,,,0.03,Wunderground v.1.15,2013-02-25 01:00:00,
2013-02-24 18:10:00,27.6,13.1,30.11,North,355,2.0,2.0,54,0.00,,,0.03,Wunderground v.1.15,2013-02-25 01:10:00,
2013-02-24 18:15:00,27.5,14.2,30.11,North,360,2.0,2.0,57,0.00,,,0.03,Wunderground v.1.15,2013-02-25 01:15:00,
2013-02-24 18:20:00,27.4,14.5,30.12,North,360,1.0,1.0,58,0.00,,,0.03,Wunderground v.1.15,2013-02-25 01:20:00,
2013-02-24 18:25:00,27.2,14.4,30.13,North,360,0.0,1.0,58,0.00,,,0.03,Wunderground v.1.15,2013-02-25 01:25:00,
2013-02-24 18:30:00,27.1,13.9,30.13,North,360,0.0,2.0,57,0.00,,,0.03,Wunderground v.1.15,2013-02-25 01:30:00,
2013-02-24 18:35:00,27.0,14.6,30.13,North,360,0.0,2.0,59,0.00,,,0.03,Wunderground v.1.15,2013-02-25 01:35:00,
2013-02-24 18:40:00,26.9,14.5,30.13,North,360,0.0,0.0,59,0.00,,,0.03,Wunderground v.1.15,2013-02-25 01:40:00,
2013-02-24 18:45:00,26.8,14.0,30.14,North,360,0.0,0.0,58,0.00,,,0.03,Wunderground v.1.15,2013-02-25 01:45:00,
2013-02-24 18:50:00,26.7,14.3,30.14,North,360,0.0,0.0,59,0.00,,,0.03,Wunderground v.1.15,2013-02-25 01:50:00,
2013-02-24 19:01:00,26.4,14.4,30.14,North,360,0.0,13.0,60,0.00,,,0.03,Wunderground v.1.15,2013-02-25 02:01:00,
2013-02-24 19:05:00,26.2,14.2,30.14,North,360,0.0,13.0,60,0.00,,,0.03,Wunderground v.1.15,2013-02-25 02:05:00,
2013-02-24 19:10:00,26.0,14.8,30.15,North,360,0.0,13.0,62,0.00,,,0.03,Wunderground v.1.15,2013-02-25 02:10:00,
2013-02-24 19:20:00,25.7,14.8,30.15,North,360,0.0,0.0,63,0.00,,,0.03,Wunderground v.1.15,2013-02-25 02:20:00,
2013-02-24 19:30:00,25.4,13.8,30.16,North,360,0.0,0.0,61,0.00,,,0.03,Wunderground v.1.15,2013-02-25 02:30:00,
2013-02-24 19:35:00,25.2,14.0,30.16,North,360,0.0,0.0,62,0.00,,,0.03,Wunderground v.1.15,2013-02-25 02:35:00,
2013-02-24 19:40:00,25.0,13.1,30.17,North,360,0.0,0.0,60,0.00,,,0.03,Wunderground v.1.15,2013-02-25 02:40:00,
2013-02-24 19:45:00,24.8,13.2,30.17,North,360,0.0,0.0,61,0.00,,,0.03,Wunderground v.1.15,2013-02-25 02:45:00,
2013-02-24 19:50:00,24.6,13.4,30.17,North,5,0.0,0.0,62,0.00,,,0.03,Wunderground v.1.15,2013-02-25 02:50:00,
2013-02-24 19:55:00,24.5,14.1,30.18,NNE,15,1.0,2.0,64,0.00,,,0.03,Wunderground v.1.15,2013-02-25 02:55:00,
2013-02-24 20:05:00,24.3,13.9,30.18,NNE,15,0.0,4.0,64,0.00,,,0.03,Wunderground v.1.15,2013-02-25 03:05:00,
2013-02-24 20:10:00,24.0,13.6,30.18,NNE,15,0.0,4.0,64,0.00,,,0.03,Wunderground v.1.15,2013-02-25 03:10:00,
2013-02-24 20:20:00,23.9,13.1,30.19,NNE,17,0.0,2.0,63,0.00,,,0.03,Wunderground v.1.15,2013-02-25 03:20:00,
2013-02-24 20:25:00,23.9,13.5,30.19,NNE,17,0.0,0.0,64,0.00,,,0.03,Wunderground v.1.15,2013-02-25 03:25:00,
2013-02-24 20:30:00,23.9,12.8,30.19,NNE,17,0.0,0.0,62,0.00,,,0.03,Wunderground v.1.15,2013-02-25 03:30:00,
2013-02-24 20:35:00,23.9,13.1,30.19,NNE,17,0.0,0.0,63,0.00,,,0.03,Wunderground v.1.15,2013-02-25 03:35:00,
2013-02-24 20:40:00,23.9,12.4,30.19,NNE,17,0.0,0.0,61,0.00,,,0.03,Wunderground v.1.15,2013-02-25 03:40:00,
2013-02-24 20:45:00,23.8,12.7,30.19,NNE,17,0.0,0.0,62,0.00,,,0.03,Wunderground v.1.15,2013-02-25 03:45:00,
2013-02-24 20:50:00,23.7,12.2,30.19,NNE,17,0.0,0.0,61,0.00,,,0.03,Wunderground v.1.15,2013-02-25 03:50:00,
2013-02-24 21:00:00,23.6,12.5,30.20,NNE,17,0.0,0.0,62,0.00,,,0.03,Wunderground v.1.15,2013-02-25 04:00:00,
2013-02-24 21:05:00,23.6,12.1,30.20,NNE,17,0.0,4.0,61,0.00,,,0.03,Wunderground v.1.15,2013-02-25 04:05:00,
2013-02-24 21:10:00,23.4,13.4,30.20,NNE,17,0.0,0.0,65,0.00,,,0.03,Wunderground v.1.15,2013-02-25 04:10:00,
2013-02-24 21:15:00,23.3,12.9,30.20,NNE,17,0.0,0.0,64,0.00,,,0.03,Wunderground v.1.15,2013-02-25 04:15:00,
2013-02-24 21:20:00,22.9,12.2,30.20,NNE,17,0.0,0.0,63,0.00,,,0.03,Wunderground v.1.15,2013-02-25 04:20:00,
2013-02-24 21:25:00,22.7,12.3,30.21,NNE,17,0.0,0.0,64,0.00,,,0.03,Wunderground v.1.15,2013-02-25 04:25:00,
2013-02-24 21:30:00,22.5,11.8,30.21,NNE,17,0.0,0.0,63,0.00,,,0.03,Wunderground v.1.15,2013-02-25 04:30:00,
2013-02-24 21:35:00,22.4,11.7,30.21,NNE,17,0.0,0.0,63,0.00,,,0.03,Wunderground v.1.15,2013-02-25 04:35:00,
2013-02-24 21:40:00,22.2,11.5,30.21,NNE,17,0.0,0.0,63,0.00,,,0.03,Wunderground v.1.15,2013-02-25 04:40:00,
2013-02-24 21:45:00,22.0,11.0,30.21,NNE,17,0.0,0.0,62,0.00,,,0.03,Wunderground v.1.15,2013-02-25 04:45:00,
2013-02-24 21:50:00,21.6,10.6,30.21,NNE,17,0.0,0.0,62,0.00,,,0.03,Wunderground v.1.15,2013-02-25 04:50:00,
2013-02-24 21:55:00,21.4,10.4,30.21,NNE,17,0.0,0.0,62,0.00,,,0.03,Wunderground v.1.15,2013-02-25 04:55:00,
2013-02-24 22:00:00,21.0,10.4,30.22,NNE,17,0.0,2.0,63,0.00,,,0.03,Wunderground v.1.15,2013-02-25 05:00:00,
2013-02-24 22:10:00,20.3,10.1,30.22,NNE,17,0.0,0.0,64,0.00,,,0.03,Wunderground v.1.15,2013-02-25 05:10:00,
2013-02-24 22:20:00,19.7,10.2,30.22,NNE,17,0.0,0.0,66,0.00,,,0.03,Wunderground v.1.15,2013-02-25 05:20:00,
2013-02-24 22:25:00,19.7,9.8,30.22,NNE,17,0.0,0.0,65,0.00,,,0.03,Wunderground v.1.15,2013-02-25 05:25:00,
2013-02-24 22:30:00,19.7,9.8,30.22,NNE,17,0.0,0.0,65,0.00,,,0.03,Wunderground v.1.15,2013-02-25 05:30:00,
2013-02-24 22:35:00,19.5,10.0,30.23,NNE,17,0.0,0.0,66,0.00,,,0.03,Wunderground v.1.15,2013-02-25 05:35:00,
2013-02-24 22:40:00,18.9,9.4,30.23,NNE,17,0.0,0.0,66,0.00,,,0.03,Wunderground v.1.15,2013-02-25 05:40:00,
2013-02-24 22:45:00,18.4,9.6,30.23,NNE,17,0.0,0.0,68,0.00,,,0.03,Wunderground v.1.15,2013-02-25 05:45:00,
2013-02-24 22:50:00,18.4,9.6,30.23,NNE,17,0.0,0.0,68,0.00,,,0.03,Wunderground v.1.15,2013-02-25 05:50:00,
2013-02-24 22:55:00,18.6,9.5,30.23,NNE,17,1.0,1.0,67,0.00,,,0.03,Wunderground v.1.15,2013-02-25 05:55:00,
2013-02-24 23:10:00,18.4,9.3,30.23,NNE,17,0.0,3.0,67,0.00,,,0.03,Wunderground v.1.15,2013-02-25 06:10:00,
2013-02-24 23:15:00,18.1,9.6,30.24,NNE,17,0.0,0.0,69,0.00,,,0.03,Wunderground v.1.15,2013-02-25 06:15:00,
2013-02-24 23:20:00,17.8,9.7,30.24,NNE,17,0.0,0.0,70,0.00,,,0.03,Wunderground v.1.15,2013-02-25 06:20:00,
2013-02-24 23:30:00,17.2,9.4,30.25,NNE,17,0.0,0.0,71,0.00,,,0.03,Wunderground v.1.15,2013-02-25 06:30:00,
2013-02-24 23:40:00,17.0,9.2,30.25,NNE,17,0.0,0.0,71,0.00,,,0.03,Wunderground v.1.15,2013-02-25 06:40:00,
2013-02-24 23:45:00,17.1,9.3,30.25,NNE,17,0.0,0.0,71,0.00,,,0.03,Wunderground v.1.15,2013-02-25 06:45:00,
2013-02-24 23:50:00,17.0,9.2,30.25,NNE,17,0.0,2.0,71,0.00,,,0.03,Wunderground v.1.15,2013-02-25 06:50:00,
2013-02-24 23:55:00,17.1,9.6,30.25,NNE,17,1.0,1.0,72,0.00,,,0.03,Wunderground v.1.15,2013-02-25 06:55:00,